Date String (YYYY-MM-DD hh:mm:ss) UTC,Instrument flags,absolute air pressure of the measurement (hPa),sample flow rate (lpm),inlet stack bypass flow (lpm),air temperature of the measurement (°C),ambient temperature measured by the external sensor (°C),aerosol sample conditioner tube jacket temperature (°C),OPC LED temperature (°C),internal box temperature (°C),relative humidity of the measurement (%),span deviation,mass concentration of particles derived from Lorenz-Mie calculation of OPC scattering (μg/m³),mass concentration of particles derived from Lorenz-Mie calculation of OPC scattering (μg/m³),mass concentration of particles derived from Lorenz-Mie calculation of OPC scattering (μg/m³)
DateTimeUTC,F1_M11,P_M11,Q1_M11,Q2_M11,T1_M11,T2_M11,T3_M11,T4_M11,T5_M11,U1_M11,ZSPAN_M11,X0_M11,X2_M11,X1_M11
2023-11-28 21:00:00,SystemResetWarning,0832.7,5.01,000.00,025.7,024.9,000.0,033.9,027.1,8.8,0000.0,0007.72,0003.92,0003.64
2023-11-28 21:01:00,SystemResetWarning,0832.6,5.01,000.00,025.8,024.9,000.0,033.9,027.2,8.6,0000.0,0007.24,0003.94,0003.65
2023-11-28 21:02:00,SystemResetWarning,0832.6,5.01,000.00,025.8,024.9,000.0,033.9,027.2,9.1,0000.0,0007.37,0003.95,0003.64
2023-11-28 21:03:00,SystemResetWarning,0832.6,4.99,000.00,025.8,024.9,000.0,033.9,027.2,8.8,0000.0,0007.00,0003.93,0003.64
2023-11-28 21:04:00,SystemResetWarning,0832.6,5.00,000.00,025.8,024.9,000.0,033.9,027.2,8.6,0000.0,0006.44,0003.93,0003.65
2023-11-28 21:05:00,SystemResetWarning,0832.6,5.00,000.00,025.8,024.9,000.0,033.9,027.3,8.4,0000.0,0006.38,0003.92,0003.65
2023-11-28 21:06:00,SystemResetWarning,0832.6,5.00,000.00,025.8,025.0,000.0,033.9,027.3,8.5,0000.0,0006.83,0003.91,0003.65
2023-11-28 21:07:00,SystemResetWarning,0832.7,5.00,000.00,025.9,025.0,000.0,034.0,027.3,8.5,0000.0,0007.09,0003.88,0003.62
2023-11-28 21:08:00,SystemResetWarning,0832.6,5.00,000.00,025.9,025.0,000.0,034.0,027.3,8.7,0000.0,0007.00,0003.83,0003.58
2023-11-28 21:09:00,SystemResetWarning,0832.6,5.00,000.00,025.9,025.0,000.0,034.0,027.3,8.6,0000.0,0006.94,0003.83,0003.58
2023-11-28 21:10:00,SystemResetWarning,0832.6,5.00,000.00,025.9,025.1,000.0,034.0,027.3,8.8,0000.0,0007.03,0003.84,0003.58
2023-11-28 21:11:00,SystemResetWarning,0832.7,5.00,000.00,025.9,025.1,000.0,034.0,027.4,8.5,0000.0,0007.15,0003.86,0003.60
2023-11-28 21:12:00,SystemResetWarning,0832.7,5.01,000.00,026.0,025.1,000.0,034.0,027.4,8.1,0000.0,0006.97,0003.84,0003.60
2023-11-28 21:13:00,SystemResetWarning,0832.7,5.01,000.00,026.0,025.1,000.0,034.0,027.4,8.0,0000.0,0007.36,0003.85,0003.61
2023-11-28 21:14:00,SystemResetWarning,0832.7,5.00,000.00,026.0,025.1,000.0,034.1,027.4,8.4,0000.0,0007.40,0003.86,0003.62
2023-11-28 21:15:00,SystemResetWarning,0832.6,4.99,000.00,026.0,025.2,000.0,034.1,027.4,8.3,0000.0,0007.38,0003.85,0003.61
2023-11-28 21:16:00,SystemResetWarning,0832.6,5.00,000.00,026.0,025.2,000.0,034.1,027.4,8.4,0000.0,0007.86,0003.85,0003.61
2023-11-28 21:17:00,SystemResetWarning,0832.7,5.00,000.00,026.0,025.2,000.0,034.1,027.4,8.3,0000.0,0007.95,0003.85,0003.61
2023-11-28 21:18:00,SystemResetWarning,0832.5,5.00,000.00,026.1,025.2,000.0,034.1,027.4,7.8,0000.0,0007.56,0003.87,0003.63
2023-11-28 21:19:00,SystemResetWarning,0832.6,5.01,000.00,026.1,025.2,000.0,034.2,027.5,7.8,0000.0,0007.74,0003.93,0003.66
2023-11-28 21:20:00,SystemResetWarning,0832.6,5.01,000.00,026.1,025.3,000.0,034.2,027.5,7.8,0000.0,0007.77,0003.95,0003.69
2023-11-28 21:21:00,SystemResetWarning,0832.6,5.00,000.00,026.1,025.3,000.0,034.2,027.5,7.9,0000.0,0007.84,0003.98,0003.72
2023-11-28 21:22:00,SystemResetWarning,0832.6,4.99,000.00,026.1,025.3,000.0,034.2,027.5,8.1,0000.0,0007.96,0004.04,0003.75
2023-11-28 21:23:00,SystemResetWarning,0832.6,5.00,000.00,026.1,025.3,000.0,034.2,027.5,8.5,0000.0,0008.74,0004.11,0003.78
2023-11-28 21:24:00,SystemResetWarning,0832.6,5.00,000.00,026.1,025.3,000.0,034.2,027.6,8.2,0000.0,0009.15,0004.20,0003.83
2023-11-28 21:25:00,SystemResetWarning,0832.5,5.00,000.00,026.2,025.3,000.0,034.2,027.6,8.3,0000.0,0009.37,0004.29,0003.89
2023-11-28 21:26:00,SystemResetWarning,0832.5,5.00,000.00,026.2,025.3,000.0,034.3,027.6,7.9,0000.0,0009.61,0004.41,0003.96
2023-11-28 21:27:00,SystemResetWarning,0832.5,5.00,000.00,026.2,025.4,000.0,034.3,027.6,8.0,0000.0,0009.44,0004.52,0004.02
2023-11-28 21:28:00,SystemResetWarning,0832.6,5.00,000.00,026.2,025.4,000.0,034.3,027.6,8.7,0000.0,0009.51,0004.59,0004.07
2023-11-28 21:29:00,SystemResetWarning,0832.6,5.01,000.00,026.2,025.4,000.0,034.3,027.6,8.5,0000.0,0010.36,0004.63,0004.10
2023-11-28 21:30:00,SystemResetWarning,0832.6,5.00,000.00,026.2,025.4,000.0,034.3,027.6,8.3,0000.0,0010.45,0004.66,0004.13
2023-11-28 21:31:00,SystemResetWarning,0832.6,5.00,000.00,026.2,025.4,000.0,034.3,027.6,8.4,0000.0,0010.61,0004.75,0004.17
2023-11-28 21:32:00,SystemResetWarning,0832.6,5.00,000.00,026.3,025.4,000.0,034.4,027.7,8.1,0000.0,0010.65,0004.81,0004.20
2023-11-28 21:33:00,SystemResetWarning,0832.6,4.99,000.00,026.3,025.4,000.0,034.4,027.7,8.4,0000.0,0010.68,0004.82,0004.23
2023-11-28 21:34:00,SystemResetWarning,0832.6,5.00,000.00,026.3,025.5,000.0,034.4,027.7,8.4,0000.0,0010.01,0004.85,0004.25
2023-11-28 21:35:00,SystemResetWarning,0832.6,5.00,000.00,026.3,025.5,000.0,034.4,027.7,8.4,0000.0,0009.50,0004.83,0004.27
2023-11-28 21:36:00,SystemResetWarning,0832.6,5.00,000.00,026.3,025.5,000.0,034.4,027.7,8.5,0000.0,0009.47,0004.82,0004.27
2023-11-28 21:37:00,SystemResetWarning,0832.5,5.00,000.00,026.3,025.5,000.0,034.4,027.7,8.4,0000.0,0009.40,0004.79,0004.26
2023-11-28 21:38:00,SystemResetWarning,0832.5,5.00,000.00,026.4,025.5,000.0,034.5,027.8,8.2,0000.0,0009.35,0004.77,0004.25
2023-11-28 21:39:00,SystemResetWarning,0832.6,5.00,000.00,026.4,025.5,000.0,034.5,027.8,8.3,0000.0,0009.21,0004.80,0004.28
2023-11-28 21:40:00,SystemResetWarning,0832.6,5.00,000.00,026.4,025.5,000.0,034.5,027.8,8.6,0000.0,0008.41,0004.80,0004.30
2023-11-28 21:41:00,SystemResetWarning,0832.7,5.00,000.00,026.4,025.6,000.0,034.5,027.8,8.5,0000.0,0008.31,0004.83,0004.33
2023-11-28 21:42:00,SystemResetWarning,0832.7,5.01,000.00,026.4,025.6,000.0,034.5,027.8,8.7,0000.0,0008.35,0004.82,0004.36
2023-11-28 21:43:00,SystemResetWarning,0832.6,5.00,000.00,026.4,025.6,000.0,034.5,027.9,8.8,0000.0,0008.57,0004.84,0004.40
2023-11-28 21:44:00,SystemResetWarning,0832.6,4.98,000.00,026.5,025.6,000.0,034.6,027.9,9.1,0000.0,0009.02,0004.92,0004.45
2023-11-28 21:45:00,SystemResetWarning,0832.6,4.99,000.00,026.5,025.6,000.0,034.6,027.9,8.8,0000.0,0009.48,0004.99,0004.50
2023-11-28 21:46:00,SystemResetWarning,0832.6,4.99,000.00,026.5,025.7,000.0,034.6,027.9,8.7,0000.0,0009.67,0005.03,0004.53
2023-11-28 21:47:00,SystemResetWarning,0832.6,5.00,000.00,026.5,025.7,000.0,034.6,027.9,8.8,0000.0,0009.80,0005.06,0004.55
2023-11-28 21:48:00,SystemResetWarning,0832.7,5.01,000.00,026.5,025.7,000.0,034.6,027.9,9.1,0000.0,0009.95,0005.11,0004.58
2023-11-28 21:49:00,SystemResetWarning,0832.6,5.01,000.00,026.5,025.7,000.0,034.6,028.0,9.0,0000.0,0010.05,0005.14,0004.59
2023-11-28 21:50:00,SystemResetWarning,0832.6,4.99,000.00,026.6,025.7,000.0,034.7,028.0,9.0,0000.0,0010.03,0005.14,0004.59
2023-11-28 21:51:00,SystemResetWarning,0832.6,4.99,000.00,026.6,025.7,000.0,034.7,028.0,9.1,0000.0,0010.20,0005.17,0004.60
2023-11-28 21:52:00,SystemResetWarning,0832.6,5.00,000.00,026.6,025.7,000.0,034.7,028.0,9.1,0000.0,0010.30,0005.14,0004.58
2023-11-28 21:53:00,SystemResetWarning,0832.6,5.01,000.00,026.6,025.7,000.0,034.7,028.0,8.9,0000.0,0010.44,0005.14,0004.54
2023-11-28 21:54:00,SystemResetWarning,0832.6,5.01,000.00,026.6,025.8,000.0,034.7,028.0,9.1,0000.0,0010.29,0005.08,0004.51
2023-11-28 21:55:00,SystemResetWarning,0832.7,5.01,000.00,026.6,025.8,000.0,034.7,028.0,8.9,0000.0,0009.82,0005.01,0004.46
2023-11-28 21:56:00,SystemResetWarning,0832.6,4.99,000.00,026.7,025.8,000.0,034.7,028.0,8.8,0000.0,0009.67,0004.93,0004.41
2023-11-28 21:57:00,SystemResetWarning,0832.6,4.99,000.00,026.7,025.8,000.0,034.8,028.1,9.0,0000.0,0009.81,0004.87,0004.37
2023-11-28 21:58:00,SystemResetWarning,0832.6,5.00,000.00,026.7,025.8,000.0,034.8,028.1,8.9,0000.0,0009.70,0004.84,0004.34
2023-11-28 21:59:00,SystemResetWarning,0832.6,5.00,000.00,026.7,025.8,000.0,034.8,028.1,8.8,0000.0,0009.86,0004.82,0004.33
